Location: Arrington
(35.8681°N, 86.7092°W)
Time: 09:48:31
(UTC+00:00)

ATLAS 2AS CENTAUR R/B - Pass Details

Date: 27 February 2020
Orbit: 929 x 1283 km, 63.7° (Epoch: 05 April)

Event Time Altitude Azimuth Distance (km) Brightness Sun altitude
Rises 09:26:32 0° 336° (NNW) 4,189 5.7 -35.7°
Reaches altitude 10° 09:30:41 10° 356° (N) 3,166 5.3 -34.9°
Maximum altitude 09:35:21 17° 34° (NE) 2,598 5.1 -33.9°
Drops below altitude 10° 09:39:48 10° 73° (ENE) 3,007 5.9 -33.1°
Sets 09:43:34 0° 93° (E) 3,890 6.6 -32.3°
